Probability
0 0 0 0 0 0 0 0 0 1 1 1 2 2 3 3 3 3 4 6 7 6 4 3 3 3 3 2 1 0 0 0 0 0 1 1 0 0 0 0 0 1 2
1 1 0 0 0 0 0 0 0 1 2 3 4 4 3 3 3 3 4 5 6 6 4 3 3 3 3 3 1 1 0 0 0 1 2 2 1 1 1 1 0 1 2
4 3 1 0 0 0 1 1 1 1 3 3 4 4 3 3 3 4 5 5 5 5 5 5 4 4 4 3 2 1 0 0 0 1 2 2 2 2 2 2 1 0 1
7 6 4 1 1 0 0 1 1 2 3 3 3 3 3 3 3 4 5 5 5 5 6 7 8 8 6 4 3 1 0 1 1 0 1 2 2 2 2 2 1 0 0
8 9 7 4 2 1 1 1 3 5 6 4 3 3 3 4 4 5 4 5 4 4 5 8 11 11 9 7 5 2 1 1 1 0 0 1 1 0 1 1 1 0 0
10 10 9 6 4 3 3 4 7 11 11 7 4 3 4 5 6 6 6 5 4 5 6 9 13 13 11 10 8 5 3 2 1 0 0 0 0 0 0 0 0 0 0
11 11 10 8 6 5 5 6 11 14 13 10 6 4 4 6 7 7 8 8 6 6 7 11 13 13 10 9 7 6 4 3 2 1 1 0 0 0 0 0 0 0 0
12 12 13 11 9 7 7 9 12 12 11 9 7 6 5 6 6 6 8 10 9 7 7 10 13 13 12 8 5 3 3 3 3 3 3 1 0 0 0 0 0 0 0
17 16 16 15 12 10 9 9 10 10 9 8 7 6 5 6 7 6 6 8 9 7 6 7 10 13 14 12 7 4 2 2 3 4 5 3 1 0 0 0 0 0 0
21 19 18 17 16 14 11 8 8 8 9 9 7 6 5 5 6 6 6 6 7 7 5 5 7 10 14 15 12 8 4 2 1 2 4 4 3 1 0 0 0 0 0
22 21 19 18 17 16 14 10 7 8 10 10 8 7 6 5 5 5 6 6 6 5 5 4 5 7 10 13 13 12 9 4 1 0 2 3 3 2 1 0 0 0 0
24 23 21 20 20 19 17 14 10 9 9 10 10 9 9 7 5 5 5 5 6 6 6 5 6 6 8 9 10 10 10 6 1 0 0 1 1 2 2 1 1 0 0
25 25 24 23 22 20 18 15 13 12 11 12 12 11 10 9 8 7 6 6 7 8 8 8 8 8 8 7 6 5 5 3 1 0 0 0 0 1 1 2 1 0 0
23 24 26 25 23 20 17 16 16 16 16 15 13 12 11 11 11 11 10 9 10 10 9 9 10 10 8 6 3 2 1 1 0 0 0 0 0 0 0 1 1 0 0
21 24 27 27 24 19 18 19 19 18 19 17 14 13 12 13 14 15 14 13 12 10 8 8 9 9 7 4 2 2 2 1 0 0 0 0 0 0 0 0 0 0 0
24 26 28 28 25 20 20 21 21 19 18 18 16 13 13 14 16 18 17 17 15 11 7 6 7 7 5 3 3 3 3 1 1 0 0 0 0 0 0 0 0 0 0
26 27 28 27 24 20 19 21 21 18 16 16 16 14 14 15 17 18 18 18 16 12 9 8 7 6 6 5 5 6 4 2 2 1 0 0 0 0 0 0 0 0 0
27 28 28 26 24 21 20 20 19 16 14 14 16 15 15 14 16 16 16 16 14 12 10 9 8 6 6 6 7 6 5 3 2 1 0 0 0 0 0 0 0 0 0
29 30 30 29 27 24 21 19 16 14 13 13 14 14 13 12 13 14 13 12 11 10 9 8 7 7 6 6 5 5 5 4 2 1 0 0 0 0 0 0 0 0 0
33 33 32 30 27 23 20 17 16 15 15 13 13 13 12 11 12 13 12 10 10 9 8 7 7 6 6 5 4 3 4 4 3 1 0 1 1 1 0 0 0 0 0
34 33 31 27 22 18 16 15 16 16 15 14 13 13 12 11 11 10 9 9 9 9 8 7 6 5 4 4 4 3 3 3 3 2 2 2 2 1 1 0 0 0 0
31 29 26 22 19 15 13 12 14 16 16 15 15 14 12 10 8 7 6 6 7 7 7 6 5 4 4 4 5 4 3 2 2 2 2 2 1 1 1 1 0 0 0
28 27 24 19 15 12 9 7 10 14 17 16 15 14 11 8 6 6 6 5 5 5 5 4 4 4 5 5 5 3 2 1 0 1 1 1 0 0 0 0 0 0 0
27 26 22 16 11 8 5 4 7 12 14 14 13 12 11 8 7 7 7 6 6 5 4 3 3 4 4 4 3 1 1 0 0 0 1 1 0 0 0 0 0 0 0
25 23 18 13 9 6 3 2 4 8 10 11 10 9 9 8 6 5 5 6 6 6 5 3 2 2 1 1 1 0 0 0 0 1 2 1 0 0 0 0 0 0 0
23 20 15 11 8 6 3 2 3 5 8 9 9 7 6 6 4 2 4 6 6 6 5 3 1 0 0 0 0 0 0 0 0 1 2 1 0 0 0 0 0 0 0
Wind_Speed
2 2 1 1 1 1 2 1 1 0 1 1 1 1 2 2 4 5 6 12 11 11 11 10 10 10 10 10 10 9 9 9 9 9 9 8 9 9 9 8 8 7 7
2 2 1 1 1 1 2 1 0 0 0 1 1 1 0 1 4 5 6 8 11 11 11 11 10 10 10 10 10 10 10 10 9 9 9 9 9 9 9 9 8 8 8
3 2 1 0 1 1 1 0 0 0 1 1 1 1 1 1 2 4 6 5 6 10 12 11 11 11 11 11 11 11 11 10 10 10 10 9 9 9 10 9 9 9 8
2 1 1 1 1 1 1 1 1 0 0 1 1 2 1 2 3 3 4 5 5 6 10 13 12 12 12 12 12 12 12 11 11 11 11 10 10 10 10 10 10 10 9
2 1 1 1 1 0 1 1 1 0 1 1 2 2 2 2 3 4 4 5 5 6 6 10 13 12 13 13 13 13 12 12 12 12 13 12 12 11 11 11 11 11 10
2 1 1 2 1 0 1 0 0 1 1 2 3 2 2 2 2 3 4 4 4 6 7 7 7 8 12 12 12 13 13 13 13 13 13 13 13 12 11 11 12 12 12
2 2 1 1 1 1 1 1 1 2 2 2 2 2 2 2 3 3 3 2 3 4 5 6 6 5 6 11 12 12 13 14 13 13 13 13 13 13 12 12 12 12 12
3 3 3 2 2 1 2 2 2 2 2 2 1 1 1 1 1 2 2 2 2 1 2 5 4 5 4 4 7 12 12 13 14 13 13 13 12 12 12 12 12 12 12
3 2 2 2 2 2 2 2 3 3 2 2 2 1 1 1 1 1 2 2 2 2 2 1 3 4 4 3 4 7 10 10 12 14 13 12 12 11 12 12 11 10 11
2 2 2 2 2 2 2 3 2 2 2 2 2 1 2 1 1 1 1 0 1 2 1 1 1 2 3 2 2 5 7 8 9 10 10 10 11 11 11 12 12 11 10
2 2 2 2 2 2 2 2 2 2 1 2 1 2 2 1 2 1 1 1 1 0 1 1 1 1 2 2 2 2 5 5 5 5 7 7 8 9 10 11 11 11 11
2 2 2 2 2 2 2 2 2 2 2 2 1 2 1 1 1 1 1 1 1 1 1 1 1 1 1 2 3 4 5 4 3 3 4 4 4 5 6 8 10 10 10
1 2 2 2 2 2 2 2 2 2 2 2 2 2 2 1 1 1 1 1 1 1 0 0 1 1 2 2 3 6 5 4 3 2 2 2 1 1 1 3 4 5 5
1 1 1 1 1 2 2 1 1 2 2 2 2 2 2 2 1 1 1 1 1 0 0 0 2 2 3 2 4 5 4 5 5 3 2 2 2 2 1 1 1 1 1
1 1 1 1 1 1 1 0 1 1 1 1 1 1 1 1 1 1 1 1 1 1 1 0 1 3 2 2 4 4 5 8 7 5 4 4 4 4 4 4 4 4 3
1 0 0 0 0 0 0 0 1 1 1 1 1 1 2 2 1 1 1 0 0 1 1 1 2 2 2 3 6 5 5 9 7 6 6 6 6 6 6 6 6 6 5
1 1 1 0 1 1 1 1 1 1 1 2 2 2 2 2 2 2 1 1 1 1 1 1 2 2 3 3 3 3 3 4 4 7 8 8 8 8 8 8 8 7 7
1 1 1 1 1 1 2 2 2 3 3 4 4 4 4 3 3 3 3 2 1 1 2 2 1 2 3 2 2 2 2 3 4 7 8 8 9 9 8 8 8 7 7
2 2 2 2 2 3 3 4 4 5 6 6 5 6 6 5 5 4 4 3 2 2 2 2 2 2 2 2 2 3 3 2 4 5 7 7 8 8 7 7 6 6 5
3 3 3 4 4 5 5 5 5 5 6 6 6 7 7 7 6 5 4 4 4 3 3 3 3 2 2 3 2 2 2 2 2 3 4 5 6 6 6 5 5 5 3
5 4 5 5 5 5 5 5 5 6 5 6 6 7 8 11 12 8 6 5 5 3 3 3 3 3 3 3 3 1 2 1 2 2 1 2 2 2 2 3 3 3 2
6 6 6 7 8 6 8 10 6 5 5 5 5 5 6 8 10 11 12 12 9 6 4 4 4 3 3 3 3 2 2 1 1 1 1 0 1 2 1 2 2 3 3
7 7 7 7 8 8 10 10 9 5 5 5 5 5 6 7 7 6 8 10 11 12 9 5 4 3 3 3 3 2 2 2 1 1 1 1 1 1 1 2 4 3 2
6 6 6 7 7 8 10 10 8 5 6 6 6 6 6 6 7 6 6 7 7 7 6 5 4 3 4 3 3 2 2 1 1 2 2 1 1 1 0 1 4 4 3
6 6 6 6 7 7 9 9 6 4 5 6 6 7 6 6 8 7 5 5 5 4 6 6 5 4 4 6 5 3 3 2 2 2 3 2 2 2 1 1 2 4 4
6 6 6 6 7 6 9 10 7 3 4 5 5 6 10 8 8 8 5 4 4 3 3 3 3 2 2 4 6 4 4 3 3 2 3 3 3 2 2 1 1 1 1
Wind_Direction
107 103 97 124 159 151 149 126 109 116 344 332 0 40 71 108 125 129 142 162 166 171 175 179 183 187 188 190 190 192 194 195 195 195 196 197 196 193 192 193 193 195 196
91 86 86 40 55 51 60 71 129 54 327 321 20 359 302 140 138 141 149 165 173 177 181 184 189 194 195 197 197 199 201 205 203 202 202 204 204 201 201 203 204 204 204
117 123 111 82 75 80 69 24 38 275 250 250 247 237 234 207 145 142 153 160 174 188 189 191 195 199 201 202 204 207 208 210 208 208 208 210 211 210 210 211 212 212 210
135 137 119 136 136 151 172 203 243 239 289 287 258 260 215 184 173 169 168 170 171 180 193 199 200 202 206 209 211 213 213 213 213 213 213 214 216 217 217 217 217 217 215
167 175 125 113 236 241 223 243 134 239 268 265 253 234 228 212 186 194 183 177 176 174 180 194 201 205 209 213 216 217 218 217 217 218 218 218 220 221 220 220 220 220 220
181 178 162 194 234 254 280 292 294 263 264 258 264 254 229 212 187 190 196 185 181 189 185 180 189 210 216 217 219 220 221 221 220 221 221 220 222 223 223 223 223 223 224
188 191 231 190 213 239 257 272 255 251 257 254 263 281 264 218 202 185 197 190 189 196 173 166 178 190 204 217 222 221 221 223 222 222 222 222 224 225 225 225 224 224 225
196 208 198 225 213 225 249 263 267 268 267 253 230 255 286 293 263 207 181 188 186 155 169 179 172 179 184 185 214 221 223 225 225 224 223 222 224 225 227 228 226 225 226
196 227 197 238 244 236 228 240 247 246 259 268 244 217 229 243 274 273 206 190 160 158 193 177 168 178 173 170 187 209 218 225 227 227 226 224 223 224 226 228 228 228 228
204 202 198 216 247 262 245 246 234 243 245 262 270 252 226 203 207 289 313 264 180 167 147 176 162 150 167 163 159 172 198 215 224 227 225 224 220 221 224 227 230 232 231
199 219 202 203 219 241 249 269 306 284 269 263 282 278 260 237 229 207 244 299 347 344 167 160 123 100 133 146 149 151 171 192 208 225 228 226 226 224 226 228 232 236 238
198 227 225 212 226 240 236 243 262 267 275 280 280 280 273 248 244 225 223 238 229 240 204 121 124 130 118 117 123 110 134 151 174 205 221 228 236 238 236 232 232 236 242
183 218 236 215 231 241 244 242 235 257 259 260 258 267 272 268 256 241 229 239 232 231 137 70 101 115 112 99 101 104 104 115 128 147 163 175 185 219 245 247 242 243 247
213 197 203 208 226 248 256 241 248 237 246 255 261 268 272 271 261 243 236 220 254 305 43 80 51 54 68 86 94 100 87 97 100 104 109 109 105 96 80 56 30 360 301
249 142 189 201 206 242 294 296 273 267 269 260 284 292 286 282 280 257 246 199 186 223 253 85 61 46 53 69 86 87 81 84 89 91 93 91 86 77 68 66 65 60 56
336 356 256 197 137 80 22 355 346 339 339 338 10 0 344 332 317 305 261 306 48 199 225 58 62 57 48 62 82 84 83 83 85 94 93 92 90 83 79 74 70 65 59
345 340 287 107 84 61 60 57 49 28 23 22 22 35 24 11 12 11 26 41 37 95 140 78 55 55 51 54 78 91 95 95 89 95 99 99 96 91 85 79 74 69 61
64 46 36 62 75 68 59 47 39 50 50 46 41 38 29 27 32 18 15 25 31 49 112 108 65 48 43 39 75 86 81 89 90 98 103 99 96 91 86 83 78 72 66
63 58 61 63 57 55 60 61 62 59 57 51 48 46 36 28 29 30 26 17 19 40 68 94 80 57 44 29 39 57 66 71 96 100 104 105 103 101 100 97 91 83 73
66 66 67 65 62 55 53 61 71 68 66 61 57 54 47 41 31 24 32 24 31 49 62 76 78 60 42 15 25 49 53 40 57 75 78 105 112 112 110 103 96 92 85
75 71 69 65 67 64 49 54 71 74 69 66 64 67 66 62 55 48 45 34 34 42 55 65 67 57 39 21 10 16 58 65 56 55 82 109 120 105 105 108 105 106 101
76 73 68 65 60 54 42 50 63 70 67 63 66 68 72 63 63 63 62 56 53 53 51 58 55 52 35 19 2 20 41 23 31 1 24 104 125 109 123 129 130 130 130
81 75 73 74 71 51 42 46 49 67 66 60 57 53 59 57 54 55 61 58 54 52 55 65 63 47 36 12 0 10 12 15 14 345 18 1 60 82 79 124 158 159 158
88 84 79 79 76 54 40 40 41 66 67 63 58 57 62 52 42 42 58 59 54 43 46 61 64 54 47 20 7 7 2 15 52 27 22 3 6 1 43 139 185 198 207
93 90 86 81 76 52 33 34 33 82 83 74 64 55 58 54 36 43 63 66 64 59 61 71 76 73 51 35 21 15 8 22 34 34 11 360 347 334 324 172 206 223 232
101 97 88 80 74 59 33 29 23 77 96 92 80 66 58 50 34 34 48 49 46 29 40 70 79 69 62 48 37 30 18 17 17 20 5 351 346 345 340 339 333 224 258